Content
SEND FEEDBACK

Daily
Averages
Monthly
Summary
Mexico

SAN MARTINIANO, QUINTANA ROO


Home > North America > Mexico > Quintana Roo
Elevation: 49 feet     Latitude: 20 47N     Longitude: 087 16W

WEATHER
 
SELECT A DAY
Number of Records: 196,490;   Date Range: 2/21/06 - 7/29/14
 
SHARE

PRINT THIS DATA

[ ← Previous Day ]
WEATHER ALMANAC - JANUARY 29, 2014
[ Next Day → ]
[ °C ]   °F
Weather ElementAverageHighLow
Temperature53.5 °F68 °F (12:55 am)46.4 °F (3:55 pm)
Barometer30.14 in30.24 in (9:35 pm)30.01 in (12:35 am)
Wind Speed7.1 mph15 mph (3:55 pm)
Wind Gust23 mph (4:15 pm)
Weather ElementAverage
Visibility8.7 mi
Wind DirectionESE (103.4 °)

Weather ElementTotal
Precipitation0.48 in
Heating Degree Days7.8 (Base 65)
Growing Degree Days7.2 (Base 50)
Averaged from 71 records on January 29, 2014
WEATHER CONDITIONS BREAKOUT
WIND DIRECTION BREAKOUT
WEATHER BY HOUR - JANUARY 29, 2014
[ °C ]   °F
Local TimeTemperatureDewpointHumidityBarometerVisibilityWind DirectionWind SpeedGust SpeedPrecipitationEventsConditions
12:35 AM66.2 °F0.0 °F30.01 in10.0 miSouth (180°)3.5 mphClear
12:55 AM68.0 °F0.0 °F30.01 in10.0 miSW (230°)3.5 mphScattered Clouds
1:15 AM66.2 °F0.0 °F30.02 in10.0 miSW (220°)3.5 mphScattered Clouds
1:35 AM66.2 °F0.0 °F30.02 in10.0 miWest (270°)4.6 mphMostly Cloudy
1:55 AM66.2 °F0.0 °F30.01 in7.0 miCalmOvercast
2:15 AM66.2 °F0.0 °F30.02 in5.0 miWest (280°)4.6 mphHaze
2:35 AM66.2 °F0.0 °F30.02 in3.0 miWest (270°)5.8 mphOvercast
2:55 AM66.2 °F0.0 °F30.02 in2.5 miWest (270°)5.8 mphOvercast
3:15 AM64.4 °F0.0 °F30.02 in5.0 miNW (310°)8.1 mphHaze
3:35 AM62.6 °F0.0 °F30.04 in10.0 miWNW (300°)9.2 mphOvercast
3:55 AM62.6 °F0.0 °F30.03 in10.0 miNNW (340°)3.5 mphOvercast
4:15 AM62.6 °F0.0 °F30.04 in10.0 miNNW (330°)4.6 mphOvercast
4:35 AM62.6 °F0.0 °F30.04 in10.0 miNNW (330°)5.8 mphOvercast
4:55 AM60.8 °F0.0 °F30.05 in5.0 miNNW (340°)8.1 mphRainLight Rain
5:15 AM59.0 °F0.0 °F30.07 in3.0 miNorth (360°)9.2 mph19.6 mphRainRain
5:35 AM57.2 °F0.0 °F30.07 in4.0 miNorth (360°)12.7 mph17.3 mphHaze
5:55 AM57.2 °F0.0 °F30.08 in4.0 miNNE (20°)6.9 mphHaze
6:15 AM57.2 °F0.0 °F30.10 in7.0 miNorth (360°)4.6 mphOvercast
6:35 AM57.2 °F0.0 °F30.11 in10.0 miNorth (10°)5.8 mphOvercast
6:55 AM57.2 °F0.0 °F30.12 in10.0 miNorth (10°)6.9 mphOvercast
7:15 AM57.2 °F0.0 °F30.12 in10.0 miNNE (30°)6.9 mphOvercast
7:35 AM55.4 °F0.0 °F30.12 in10.0 miNNE (30°)6.9 mphRainLight Rain
7:55 AM55.4 °F0.0 °F30.13 in7.0 miNorth (10°)5.8 mph0.01 inRainRain
8:15 AM55.4 °F0.0 °F30.14 in10.0 miNorth (10°)5.8 mphOvercast
8:35 AM55.4 °F0.0 °F30.14 in4.0 miNNE (30°)5.8 mph0.03 inRainHeavy Rain
8:55 AM55.4 °F0.0 °F30.15 in7.0 miNE (40°)5.8 mph0.06 inLight Drizzle
9:15 AM55.4 °F0.0 °F30.15 in10.0 miENE (70°)9.2 mphOvercast
9:35 AM55.4 °F0.0 °F30.16 in10.0 miNE (40°)6.9 mphOvercast
9:55 AM55.4 °F0.0 °F30.16 in10.0 miENE (60°)6.9 mphOvercast
10:15 AM55.4 °F0.0 °F30.17 in10.0 miNNE (20°)5.8 mphOvercast
10:35 AM55.4 °F0.0 °F30.17 in10.0 miNNE (20°)3.5 mphOvercast
10:55 AM55.4 °F0.0 °F30.16 in10.0 miENE (70°)6.9 mphOvercast
11:15 AM55.4 °F0.0 °F30.16 in10.0 miNNE (30°)8.1 mphOvercast
11:35 AM55.4 °F0.0 °F30.17 in10.0 miNNE (30°)6.9 mphOvercast
11:55 AM55.4 °F0.0 °F30.17 in10.0 miNNE (20°)8.1 mphOvercast
12:15 PM53.6 °F0.0 °F30.16 in10.0 miNNE (30°)9.2 mphOvercast
12:35 PM53.6 °F0.0 °F30.16 in10.0 miNNE (20°)9.2 mph16.1 mphOvercast
12:55 PM51.8 °F0.0 °F30.15 in10.0 miNNE (30°)11.5 mph17.3 mphOvercast
1:15 PM51.8 °F0.0 °F30.14 in10.0 miNNE (20°)8.1 mphOvercast
1:35 PM50.0 °F0.0 °F30.14 in10.0 miNE (40°)9.2 mphOvercast
1:55 PM50.0 °F0.0 °F30.14 in10.0 miENE (60°)10.4 mph17.3 mphOvercast
2:15 PM50.0 °F0.0 °F30.13 in10.0 miNNE (30°)9.2 mph19.6 mphOvercast
2:35 PM50.0 °F0.0 °F30.15 in10.0 miNNE (30°)9.2 mphOvercast
2:55 PM50.0 °F0.0 °F30.17 in10.0 miNNE (20°)9.2 mphOvercast
3:15 PM48.2 °F0.0 °F30.17 in10.0 miNorth (10°)8.1 mphOvercast
3:35 PM48.2 °F0.0 °F30.18 in10.0 miNorth (10°)8.1 mph16.1 mphOvercast
3:55 PM46.4 °F0.0 °F30.19 in10.0 miNorth (360°)15.0 mph21.9 mphLight Drizzle
4:15 PM46.4 °F0.0 °F30.18 in10.0 miNorth (360°)15.0 mph23.0 mphRainLight Rain
4:35 PM46.4 °F0.0 °F30.18 in10.0 miNNE (20°)10.4 mph23.0 mph0.01 inRainLight Rain
4:55 PM46.4 °F0.0 °F30.18 in10.0 miNNE (20°)10.4 mph0.01 inLight Drizzle
5:15 PM46.4 °F0.0 °F30.18 in10.0 miNE (40°)10.4 mph18.4 mphOvercast
5:35 PM46.4 °F0.0 °F30.18 in10.0 miNNE (20°)4.6 mphRainLight Rain
5:55 PM46.4 °F0.0 °F30.18 in10.0 miNE (40°)5.8 mphOvercast
6:15 PM46.4 °F0.0 °F30.17 in10.0 miNE (40°)9.2 mphLight Drizzle
6:35 PM46.4 °F0.0 °F30.18 in10.0 miNE (50°)6.9 mph17.3 mphRainLight Rain
6:55 PM46.4 °F0.0 °F30.20 in7.0 miNNE (30°)5.8 mph0.03 inRainRain
7:15 PM46.4 °F0.0 °F30.19 in7.0 miNE (50°)6.9 mph18.4 mph0.01 inRainLight Rain
7:35 PM46.4 °F0.0 °F30.20 in7.0 miNE (40°)5.8 mph0.03 inRainRain
7:55 PM46.4 °F0.0 °F30.20 in7.0 miNE (40°)6.9 mph18.4 mph0.04 inRainRain
8:15 PM46.4 °F0.0 °F30.20 in7.0 miNE (50°)9.2 mph0.02 inRainLight Rain
8:35 PM46.4 °F0.0 °F30.20 in7.0 miNNE (30°)5.8 mph0.04 inRainLight Rain
8:55 PM46.4 °F0.0 °F30.22 in7.0 miNorth (10°)4.6 mph0.05 inRainLight Rain
9:15 PM46.4 °F0.0 °F30.22 in10.0 miNE (40°)6.9 mph0.01 inRainLight Rain
9:35 PM46.4 °F0.0 °F30.24 in10.0 miNorth (10°)5.8 mph0.01 inRainLight Rain
9:55 PM46.4 °F0.0 °F30.22 in7.0 miNorth (10°)5.8 mph0.02 inRainLight Rain
10:15 PM46.4 °F0.0 °F30.21 in7.0 miNE (40°)8.1 mphRainLight Rain
10:35 PM46.4 °F0.0 °F30.22 in10.0 miNorth (10°)5.8 mph0.02 inLight Drizzle
10:55 PM46.4 °F0.0 °F30.20 in10.0 miNE (50°)8.1 mph0.03 inRainLight Rain
11:15 PM46.4 °F0.0 °F30.21 in10.0 miNorth (360°)3.5 mph0.01 inRainLight Rain
11:35 PM46.4 °F0.0 °F30.21 in10.0 miNorth (10°)4.6 mph0.02 inRainRain
11:55 PM46.4 °F0.0 °F30.20 in10.0 miNorth (10°)5.8 mph0.02 inOvercast
Hourly data recorded from KPCM, located miles away from San Martiniano, Quintana Roo







STORIES FROM OUR PARTNERS